Regional Weather Roundup
Issued by NWS

Home | Current Version | Previous Version | Graphics & Text | Print | Product List | Glossary On
Versions: 1 2 3 4 5 6 7 8 9 10 11 12 13 14 15 16 17 18 19 20 21 22 23 24 25 26 27 28 29 30 31 32 33 34 35 36 37 38 39 40 41 42 43 44 45 46 47 48 49 50
000
ASUS43 KFSD 221202
RWRSD

WEATHER ROUNDUP FOR SOUTH DAKOTA
NATIONAL WEATHER SERVICE SIOUX FALLS SD
600 AM CST SUN JAN 22 2017

NOTE: "FAIR" INDICATES FEW OR NO CLOUDS BELOW 12,000 FEET WITH NO
SIGNIFICANT WEATHER AND/OR OBSTRUCTIONS TO VISIBILITY.


SDZ001>005-009-010-012>017-221300-
NORTHWEST AND NORTH CENTRAL SOUTH DAKOTA

CITY           SKY/WX    TMP DP  RH WIND       PRES   REMARKS
BUFFALO          N/A     18  15  88 W13       29.66R WCI   5
FAITH            N/A     21  18  88 NW13      29.72S WCI   9
MOBRIDGE       CLOUDY    12   7  80 N7        29.71R WCI   1
$$

SDZ012>016-024>037-041>051-057-063-072>074-221300-
SOUTHWEST AND SOUTH CENTRAL SOUTH DAKOTA

CITY           SKY/WX    TMP DP  RH WIND       PRES   REMARKS
RAPID CTY ARPT CLEAR     28  19  69 W9        29.74R WCI  19
PIERRE         CLOUDY    19  16  88 CALM      29.73R
CUSTER         CLEAR     26  17  68 NW5       29.72R WCI  20
PHILIP         CLOUDY    23  21  92 W9        29.76R WCI  13
PINE RIDGE     CLEAR     11   9  92 NW3       29.77R FOG
SPEARFISH      FAIR      27  18  69 W5        29.75R WCI  21
WINNER         FAIR      24  21  88 NW7       29.74R WCI  16
$$

SDZ004>011-016>023-039-040-221300-
NORTHEAST SOUTH DAKOTA

CITY           SKY/WX    TMP DP  RH WIND       PRES   REMARKS
ABERDEEN       CLOUDY    27  25  92 NW10      29.71S FOG     WCI  17
WATERTOWN      CLOUDY    32  31  96 NW12      29.66R FOG     WCI  23
BROOKINGS      CLOUDY    32  31  96 NW9       29.66R WCI  24
SISSETON         N/A     34  33  96 N10       29.67R WCI  26
$$

SDZ017-020-022-023-036>040-048>070-221300-
SOUTHEAST SOUTH DAKOTA

CITY           SKY/WX    TMP DP  RH WIND       PRES   REMARKS
SIOUX FALLS    CLOUDY    33  31  92 NW8       29.68R WCI  26
HURON          CLOUDY    26  26 100 NW15      29.72R FOG     WCI  14
CHAMBERLAIN    CLEAR     22  22  98 W7        29.73S WCI  14
MITCHELL       CLOUDY    29  28  96 W13       29.73R FOG     WCI  19
YANKTON        PTCLDY    30  27  86 NW12      29.70R WCI  21
$$

ABBREVIATIONS USED IN REMARKS
   TC - TEMPERATURE IN CELSIUS
  WCI - WIND CHILL INDEX
   HX - HEAT INDEX
  VSB - VISIBILITY





USA.gov is the U.S. government's official web portal to all federal, state and local government web resources and services.